Location: Newark
(41.7772°N, 74.7403°W)
Time: 22:20:55
(UTC+00:00)

Tiros 1 - All Passes

Search period start: 25 May 2020 00:00
Search period end: 04 June 2020 00:00
Orbit: 630 x 664 km, 48.4° (Epoch: 24 May)

Date Brightness Start Highest point End Pass type
(mag) Time Alt. Az. Time Alt. Az. Time Alt. Az.
25 May - 00:51:16 10° WNW 00:55:55 74° NNE 01:00:32 10° ESE visible
25 May - 02:33:55 10° W 02:37:48 27° SW 02:41:41 10° SSE visible
25 May - 18:28:05 10° SSW 18:32:07 28° SE 18:36:07 10° E daylight
25 May - 20:09:21 10° WSW 20:14:03 72° NNW 20:18:43 10° ENE daylight
25 May - 21:52:22 10° WNW 21:56:43 37° N 22:01:03 10° ENE daylight
25 May - 23:35:07 10° WNW 23:39:36 46° NNE 23:44:03 10° E daylight
26 May - 01:17:22 10° WNW 01:21:57 61° SW 01:26:29 10° SE visible
26 May - 03:01:40 10° WSW 03:03:24 12° SW 03:05:07 10° SSW visible
26 May - 17:14:48 10° SSE 17:16:28 12° SE 17:18:07 10° ESE daylight
26 May - 18:53:17 10° SW 18:57:56 59° SE 19:02:32 10° ENE daylight
26 May - 20:35:43 10° W 20:40:16 47° NNW 20:44:46 10° ENE daylight
26 May - 22:18:47 10° WNW 22:23:07 36° N 22:27:26 10° ENE daylight
27 May - 00:01:11 10° WNW 00:05:49 70° NNE 00:10:26 10° ESE daylight
27 May - 01:43:45 10° WNW 01:47:45 29° SW 01:51:44 10° SSE visible
27 May - 17:38:07 10° SSW 17:42:03 26° SE 17:45:58 10° E daylight
27 May - 19:19:13 10° WSW 19:23:57 76° NNW 19:28:38 10° ENE daylight
27 May - 21:02:14 10° WNW 21:06:36 37° N 21:10:57 10° ENE daylight
27 May - 22:45:01 10° WNW 22:49:29 44° NNE 22:53:56 10° E daylight
28 May - 00:27:16 10° WNW 00:31:52 66° SSW 00:36:26 10° SE daylight
28 May - 02:11:13 10° WSW 02:13:22 13° SW 02:15:32 10° SSW visible
28 May - 16:25:25 10° SE 16:26:26 11° SE 16:27:26 10° ESE daylight
28 May - 18:03:14 10° SW 18:07:51 55° SE 18:12:26 10° ENE daylight
28 May - 19:45:34 10° W 19:50:08 49° NNW 19:54:41 10° ENE daylight
28 May - 21:28:40 10° WNW 21:33:01 36° N 21:37:19 10° ENE daylight
28 May - 23:11:05 10° WNW 23:15:44 66° NNE 23:20:20 10° ESE daylight
29 May - 00:53:36 10° WNW 00:57:42 32° SW 01:01:47 10° SSE visible
29 May - 16:48:11 10° S 16:52:00 24° SE 16:55:49 10° E daylight
29 May - 18:29:06 10° WSW 18:33:51 81° NNW 18:38:34 10° ENE daylight
29 May - 20:12:04 10° WNW 20:16:29 38° N 20:20:51 10° ENE daylight
29 May - 21:54:54 10° WNW 21:59:23 43° NNE 22:03:49 10° E daylight
29 May - 23:37:09 10° WNW 23:41:48 71° SSW 23:46:24 10° SE daylight
30 May - 01:20:50 10° W 01:23:21 14° SW 01:25:50 10° SSW visible
30 May - 17:13:11 10° SW 17:17:47 51° SE 17:22:20 10° ENE daylight
30 May - 18:55:25 10° W 19:00:02 51° NNW 19:04:37 10° ENE daylight
30 May - 20:38:32 10° WNW 20:42:53 36° N 20:47:12 10° ENE daylight
30 May - 22:20:59 10° WNW 22:25:38 63° NNE 22:30:14 10° ESE daylight
31 May - 00:03:28 10° WNW 00:07:40 34° SW 00:11:50 10° SSE daylight
31 May - 15:58:15 10° S 16:01:57 23° SE 16:05:38 10° E daylight
31 May - 17:38:59 10° WSW 17:43:45 85° NNW 17:48:29 10° ENE daylight
31 May - 19:21:55 10° WNW 19:26:21 39° N 19:30:46 10° ENE daylight
31 May - 21:04:47 10° WNW 21:09:16 42° NNE 21:13:41 10° E daylight
31 May - 22:47:03 10° WNW 22:51:43 76° SSW 22:56:20 10° SE daylight
01 Jun - 00:30:31 10° W 00:33:19 16° SW 00:36:06 10° S daylight
01 Jun - 16:23:08 10° SW 16:27:42 47° SE 16:32:14 10° ENE daylight
01 Jun - 18:05:16 10° W 18:09:55 53° NNW 18:14:32 10° ENE daylight
01 Jun - 19:48:23 10° WNW 19:52:45 36° N 19:57:05 10° ENE daylight
01 Jun - 21:30:54 10° WNW 21:35:32 60° NNE 21:40:08 10° ESE daylight
01 Jun - 23:13:19 10° WNW 23:17:37 37° SW 23:21:51 10° SSE daylight
02 Jun - 15:08:20 10° S 15:11:54 21° SE 15:15:27 10° E daylight
02 Jun - 16:48:53 10° WSW 16:53:39 90° SSW 16:58:24 10° ENE daylight
02 Jun - 18:31:46 10° W 18:36:14 40° N 18:40:40 10° ENE daylight
02 Jun - 20:14:40 10° WNW 20:19:09 41° NNE 20:23:34 10° E daylight
02 Jun - 21:56:57 10° WNW 22:01:39 81° SSW 22:06:17 10° SE daylight
02 Jun - 23:40:14 10° W 23:43:17 17° SW 23:46:19 10° S daylight
03 Jun - 15:33:06 10° SSW 15:37:38 44° SE 15:42:07 10° ENE daylight
03 Jun - 17:15:07 10° W 17:19:48 55° NNW 17:24:27 10° ENE daylight
03 Jun - 18:58:15 10° WNW 19:02:38 36° N 19:06:58 10° ENE daylight
03 Jun - 20:40:47 10° WNW 20:45:26 57° NNE 20:50:02 10° E daylight
03 Jun - 22:23:10 10° WNW 22:27:33 40° SW 22:31:53 10° SSE daylight
